Flag for U.S.A. Weather past 2 weeks in Jefferson City, Missouri, U.S.A.

Now
69 °F

Sunny.


Feels Like: 69 °F
Forecast: 44 / 74 °F
Wind: 8 mph from Southwest

Location: Jefferson City Memorial Airport

Current Time: May 22, 2015 at 4:00:53 PM

Latest Report: May 22, 2015 at 2:53 PM


Visibility: 10 mi

Pressure: 30.23 "Hg

Humidity: 53%

Dew point: 51 °F

Location of Jefferson CityLocation

Historic Weather in Jefferson City — Graph

°F

Jefferson City temperature yesterday

Maximum temperature yesterday: 67 °F (at 5:53 PM)
Minimum temperature yesterday: 45 °F (at 5:53 AM)
Average temperature yesterday: 55 °F

Past Weeks' High & Low Weather Summary

 TemperatureHumidityPressure
High82 °F (May 7, 2:53 PM)97% (May 7, 10:53 PM)30.34 "Hg (May 7, 10:53 PM)
Low45 °F (May 21, 5:53 AM)28% (May 12, 3:53 PM)29.77 "Hg (May 17, 7:53 AM)
Average64 °F74%30.03 "Hg
* Reported May 7 2:53 PM — May 22 2:53 PM, Jefferson City, Weather by CustomWeather, © 2015

Note: Actual official high and low records may vary slightly from our data, if they occured in-between our weather recording intervals... More about our weather records

Advertising

Jefferson City weather history for previous 24 hours

 ConditionsComfort  
Time TempWeatherWind HumidityBarometerVisibility
2:53 PM
Fri, May 22
69 °FSunny.8 mph53%30.23 "Hg10 mi
1:53 PM67 °FSunny.7 mph63%30.24 "Hg10 mi
12:53 PM69 °FSunny.7 mph47%30.24 "Hg10 mi
11:53 AM69 °FSunny.5 mph45%30.23 "Hg10 mi
10:53 AM67 °FSunny.5 mph53%30.24 "Hg10 mi
9:53 AM65 °FSunny.5 mph54%30.24 "Hg10 mi
8:53 AM60 °FSunny.No wind67%30.23 "Hg10 mi
7:53 AM52 °FSunny.No wind83%30.23 "Hg10 mi
6:53 AM49 °FSunny.No wind90%30.23 "Hg10 mi
5:53 AM46 °FClear.No wind93%30.21 "Hg10 mi
4:53 AM46 °FClear.No wind93%30.19 "Hg10 mi
3:53 AM47 °FClear.No wind93%30.19 "Hg10 mi
2:53 AM47 °FClear.No wind90%30.19 "Hg10 mi
1:53 AM53 °FClear.No wind74%30.19 "Hg10 mi
12:53 AM50 °FClear.No wind86%30.17 "Hg10 mi
11:53 PM
Thu, May 21
52 °FClear.No wind83%30.17 "Hg10 mi
10:53 PM53 °FClear.No wind77%30.16 "Hg10 mi
9:53 PM54 °FClear.No wind77%30.17 "Hg10 mi
8:53 PM59 °FSunny.No wind60%30.15 "Hg10 mi
7:53 PM64 °FSunny.3 mph45%30.15 "Hg10 mi
6:53 PM66 °FSunny.7 mph39%30.15 "Hg10 mi
5:53 PM67 °FSunny.9 mph36%30.15 "Hg10 mi
4:53 PM65 °FSunny.9 mph37%30.16 "Hg10 mi
Weather by CustomWeather, © 2015

See weather overviewHow to use our weather pages